Austin, TX

5:05 AM CDT on July 24, 2017 (GMT -0500)
Austin

Weather History for KATT - July, 2013

Change the Weather History Date:

Monday, July 15, 2013

  Actual Average Record
Temperature  
Mean Temperature 74 °F 85 °F  
Max Temperature 78 °F 96 °F 108 °F (1925)
Min Temperature 70 °F 74 °F 65 °F (1967)
Degree Days  
Heating Degree Days 0 0  
Month to date heating degree days 0 0  
Since 1 June heating degree days 0 0  
Since 1 July heating degree days 0 0  
Cooling Degree Days 9 20  
Month to date cooling degree days 306 291  
Year to date cooling degree days 1542 1420  
Since 1 June cooling degree days 918 807  
Growing Degree Days 24 (Base 50)    
Moisture  
Dew Point 70 °F    
Average Humidity 89    
Maximum Humidity 94    
Minimum Humidity 84    
Precipitation  
Precipitation 0.51 in 0.05 in 2.70 in (2012)
Month to date precipitation 0.58 1.03  
Year to date precipitation 15.18 18.89  
Snow  
Snow 0.00 in - - ()
Month to date snowfall 0.0  
Since 1 June snowfall 0.0  
Since 1 July snowfall 0.0  
Snow Depth 0.00 in    
Sea Level Pressure  
Sea Level Pressure 29.97 in    
Wind  
Wind Speed 4 mph (NE)    
Max Wind Speed 10 mph    
Max Gust Speed 18 mph    
Visibility 6 miles    
Events Fog , Rain    
T = Trace of Precipitation, MM = Missing Value Source: NWS Daily Summary

Daily Weather History Graph

Daily Weather History Graph

Search for Another Location

Airport or City:

Trip Planner

Search our weather history database for the weather conditions in past years. The results will help you decide how hot, cold, wet, or windy it might be!

Date:

Astronomy

Jul. 15, 2013 Rise Set
Actual Time 6:39 AM CDT 8:34 PM CDT
Civil Twilight 6:12 AM CDT 9:01 PM CDT
Nautical Twilight 5:40 AM CDT 9:33 PM CDT
Astronomical Twilight 5:05 AM CDT 10:08 PM CDT
Moon 1:25 PM CDT (7/15) 12:19 AM CDT (7/15)
Length of Visible Light 14h 48m
Length of Day
13h 54m
Waxing Crescent, 45% of the Moon is Illuminated
Jul 15
Waxing Crescent
Jul 15
First Quarter
Jul 22
Full
Jul 29
Last Quarter
Aug 6
New

Hourly Weather History & Observations

Time (CDT) Temp. Dew Point Humidity Pressure Visibility Wind Dir Wind Speed Gust Speed Precip Events Conditions
12:22 AM 75.0 °F 68.0 °F 79% 29.94 in 10.0 mi ENE 6.9 mph - 0.00 in   Overcast
12:51 AM 73.9 °F 68.0 °F 82% 29.90 in 10.0 mi Variable 5.8 mph - 0.00 in   Overcast
1:04 AM 73.9 °F 68.0 °F 82% 29.94 in 10.0 mi Variable 6.9 mph - N/A   Overcast
1:51 AM 73.0 °F 69.1 °F 87% 29.91 in 8.0 mi Variable 5.8 mph - 0.00 in Rain Light Rain
2:22 AM 72.0 °F 68.0 °F 87% 29.94 in 6.0 mi ENE 4.6 mph - 0.00 in Rain Light Rain
2:51 AM 72.0 °F 68.0 °F 87% 29.89 in 5.0 mi Variable 5.8 mph - 0.00 in   Overcast
3:23 AM 71.1 °F 68.0 °F 90% 29.93 in 5.0 mi NE 6.9 mph - N/A   Overcast
3:42 AM 71.1 °F 66.9 °F 87% 29.93 in 6.0 mi NNE 8.1 mph 17.3 mph N/A   Overcast
3:51 AM 71.1 °F 66.9 °F 87% 29.89 in 7.0 mi Variable 5.8 mph - N/A   Overcast
4:31 AM 71.1 °F 66.9 °F 87% 29.94 in 7.0 mi Variable 4.6 mph - N/A   Overcast
4:46 AM 71.6 °F 68.0 °F 88% 29.95 in 7.0 mi NNE 3.5 mph - 0.00 in Rain Light Rain
4:51 AM 72.0 °F 68.0 °F 87% 29.91 in 7.0 mi NNE 4.6 mph - 0.00 in Rain Light Rain
4:58 AM 71.1 °F 68.0 °F 90% 29.95 in 7.0 mi NNE 5.8 mph - 0.00 in Rain Light Rain
5:07 AM 71.1 °F 68.0 °F 90% 29.95 in 6.0 mi ENE 5.8 mph - 0.00 in Rain Light Rain
5:14 AM 71.1 °F 68.0 °F 90% 29.95 in 5.0 mi NE 3.5 mph - 0.00 in Rain Light Rain
5:51 AM 71.1 °F 68.0 °F 90% 29.91 in 2.5 mi Variable 5.8 mph - 0.05 in Rain Rain
5:55 AM 70.0 °F 68.0 °F 93% 29.95 in 2.5 mi Variable 3.5 mph - 0.01 in Rain Light Rain
6:08 AM 71.1 °F 69.1 °F 93% 29.94 in 3.0 mi Variable 3.5 mph - 0.04 in Rain Light Rain
6:40 AM 71.1 °F 69.1 °F 93% 29.95 in 4.0 mi Variable 4.6 mph - 0.07 in Rain Light Rain
6:51 AM 71.1 °F 69.1 °F 93% 29.92 in 4.0 mi ENE 4.6 mph - 0.08 in Rain Light Rain
7:51 AM 71.1 °F 69.1 °F 93% 29.93 in 6.0 mi NE 3.5 mph - 0.01 in Rain Light Rain
8:51 AM 72.0 °F 70.0 °F 93% 29.94 in 4.0 mi Calm Calm - 0.00 in   Overcast
9:51 AM 73.0 °F 70.0 °F 90% 29.96 in 4.0 mi Variable 4.6 mph - N/A   Overcast
10:01 AM 72.0 °F 70.0 °F 93% 29.99 in 4.0 mi ESE 6.9 mph - 0.00 in Rain Light Rain
10:12 AM 73.0 °F 71.1 °F 93% 30.00 in 6.0 mi Variable 4.6 mph - 0.00 in Rain Light Rain
10:51 AM 73.0 °F 71.1 °F 93% 29.97 in 4.0 mi Variable 3.5 mph - 0.03 in Rain Rain
11:17 AM 73.0 °F 71.1 °F 93% 30.01 in 2.5 mi ESE 4.6 mph - 0.02 in Rain Light Rain
11:25 AM 73.0 °F 71.1 °F 93% 30.02 in 6.0 mi SE 3.5 mph - 0.02 in   Overcast
11:51 AM 73.0 °F 71.1 °F 93% 29.98 in 5.0 mi Calm Calm - 0.02 in Rain Light Rain
12:51 PM 73.9 °F 71.1 °F 91% 29.99 in 4.0 mi Variable 4.6 mph - 0.03 in Rain Light Rain
12:55 PM 73.9 °F 71.1 °F 91% 30.02 in 1.5 mi Calm Calm - 0.00 in Rain Light Rain
1:04 PM 73.0 °F 71.1 °F 93% 30.02 in 0.5 mi Calm Calm - 0.14 in Fog , Rain Heavy Rain
1:14 PM 73.0 °F 72.0 °F 96% 30.02 in 1.8 mi ESE 4.6 mph - 0.17 in Rain Rain
1:20 PM 73.0 °F 71.1 °F 93% 30.02 in 3.0 mi Variable 5.8 mph - 0.18 in Rain Light Rain
1:51 PM 75.0 °F 73.0 °F 94% 29.99 in 4.0 mi Variable 3.5 mph - 0.19 in Rain Light Rain
2:34 PM 75.0 °F 73.0 °F 94% 30.01 in 4.0 mi NE 3.5 mph - 0.00 in   Overcast
2:51 PM 75.9 °F 73.0 °F 91% 29.98 in 4.0 mi Variable 3.5 mph - 0.00 in   Overcast
3:01 PM 75.9 °F 73.0 °F 91% 30.00 in 4.0 mi NNE 5.8 mph - N/A   Overcast
3:51 PM 77.0 °F 73.0 °F 88% 29.96 in 8.0 mi Variable 4.6 mph - N/A   Mostly Cloudy
4:08 PM 77.0 °F 72.0 °F 84% 29.99 in 9.0 mi NNE 4.6 mph - N/A   Mostly Cloudy
4:28 PM 77.0 °F 73.0 °F 88% 30.00 in 8.0 mi Variable 3.5 mph - 0.00 in Rain Light Rain
4:44 PM 75.9 °F 73.0 °F 91% 30.00 in 2.5 mi NE 3.5 mph - 0.01 in Rain Rain
4:49 PM 75.2 °F 73.4 °F 94% 29.99 in 1.8 mi Variable 3.5 mph - 0.02 in Rain Rain
4:51 PM 75.0 °F 73.0 °F 94% 29.96 in 2.0 mi Variable 3.5 mph - 0.03 in Rain Rain
4:55 PM 73.9 °F 70.0 °F 87% 29.99 in 3.0 mi Variable 5.8 mph - 0.00 in Rain Light Rain
5:51 PM 75.0 °F 71.1 °F 87% 29.96 in 10.0 mi Calm Calm - 0.00 in   Clear
6:51 PM 73.9 °F 72.0 °F 93% 29.97 in 10.0 mi WSW 3.5 mph - N/A   Mostly Cloudy
7:25 PM 73.9 °F 71.1 °F 91% 30.00 in 10.0 mi WSW 3.5 mph - 0.00 in Rain Light Rain
7:51 PM 73.9 °F 71.1 °F 91% 29.98 in 9.0 mi North 3.5 mph - 0.02 in Rain Light Rain
8:01 PM 73.9 °F 71.1 °F 91% 30.00 in 2.0 mi North 3.5 mph - 0.04 in Rain Rain
8:06 PM 73.9 °F 71.1 °F 91% 30.00 in 3.0 mi Calm Calm - 0.04 in Rain Light Rain
8:13 PM 73.9 °F 71.1 °F 91% 30.01 in 9.0 mi Variable 3.5 mph - 0.04 in Rain Light Rain
8:51 PM 73.9 °F 72.0 °F 93% 29.99 in 8.0 mi NE 3.5 mph - 0.05 in Rain Light Rain
9:51 PM 72.0 °F 70.0 °F 93% 30.01 in 10.0 mi Calm Calm - 0.00 in Rain Light Rain
10:51 PM 72.0 °F 69.1 °F 91% 30.02 in 10.0 mi Variable 3.5 mph - 0.00 in   Clear
11:51 PM 72.0 °F 69.1 °F 91% 30.03 in 10.0 mi Variable 3.5 mph - N/A   Scattered Clouds